When you browse on this site, cookies collect data to enhance your experience and personalize the content and advertising you see.
Visit our Privacy Policy to learn more. By continuing to use the site, you agree to this use of cookies and data.
  • In United Kingdom
  • List of Countries
  • For 7 days
  • Water Temperature
  • Satellite Maps
  • Weather Map
  • Weather Widgets
  • user-avatar
    Login

    Hourly Weather De Bilt

    Today, 18 June, Tuesday

    Time Temperature Precipitation Wind Pressure Humidity
    00:00 +17°C° 0 mm 2 mps 762 mmHg 84%
    01:00 +17°C° 0 mm 2 mps 762 mmHg 83%
    02:00 +18°C° 0 mm 1 mps 761 mmHg 83%
    03:00 +18°C° 0 mm 1 mps 761 mmHg 82%
    04:00 +19°C° 0 mm 1 mps 761 mmHg 81%
    05:00 +20°C° 0 mm 1 mps 761 mmHg 79%
    06:00 +20°C° 0 mm 1 mps 761 mmHg 78%
    07:00 +22°C° 0 mm 1 mps 761 mmHg 72%
    08:00 +24°C° 0 mm 1 mps 761 mmHg 66%
    09:00 +25°C° 0 mm 1 mps 760 mmHg 60%
    10:00 +26°C° 0 mm 1 mps 760 mmHg 57%
    11:00 +27°C° 0 mm 1 mps 760 mmHg 54%
    12:00 +28°C° 0 mm 1 mps 760 mmHg 52%
    13:00 +27°C° 0.5 mm 1 mps 760 mmHg 55%
    14:00 +27°C° 0.5 mm 1 mps 759 mmHg 58%
    15:00 +26°C° 0.5 mm 2 mps 759 mmHg 61%
    16:00 +25°C° 0 mm 2 mps 759 mmHg 66%
    17:00 +24°C° 0 mm 3 mps 759 mmHg 71%
    18:00 +21°C° 0 mm 3 mps 758 mmHg 76%
    19:00 +20°C° 0 mm 3 mps 758 mmHg 81%
    20:00 +19°C° 0 mm 3 mps 758 mmHg 86%
    21:00 +18°C° 0 mm 2 mps 758 mmHg 91%
    22:00 +18°C° 0.1 mm 2 mps 758 mmHg 91%
    23:00 +18°C° 0.1 mm 2 mps 757 mmHg 92%

    Tomorrow, 19 June, Wednesday

    Time Temperature Precipitation Wind Pressure Humidity
    00:00 +18°C° 0.1 mm 2 mps 757 mmHg 93%
    01:00 +18°C° 0 mm 2 mps 757 mmHg 92%
    02:00 +17°C° 0 mm 2 mps 756 mmHg 92%
    03:00 +17°C° 0 mm 2 mps 756 mmHg 92%
    04:00 +18°C° 0 mm 2 mps 755 mmHg 89%
    05:00 +19°C° 0 mm 3 mps 755 mmHg 86%
    06:00 +20°C° 0 mm 3 mps 755 mmHg 83%
    07:00 +20°C° 0.2 mm 3 mps 754 mmHg 84%
    08:00 +20°C° 0.2 mm 3 mps 754 mmHg 85%
    09:00 +20°C° 0.2 mm 2 mps 754 mmHg 85%
    10:00 +21°C° 0 mm 3 mps 754 mmHg 80%
    11:00 +22°C° 0 mm 4 mps 754 mmHg 75%
    12:00 +23°C° 0 mm 4 mps 754 mmHg 70%
    13:00 +23°C° 0.9 mm 5 mps 754 mmHg 71%
    14:00 +23°C° 0.9 mm 6 mps 754 mmHg 72%
    15:00 +24°C° 0.9 mm 6 mps 754 mmHg 74%
    16:00 +23°C° 0.1 mm 6 mps 754 mmHg 75%
    17:00 +22°C° 0.1 mm 6 mps 755 mmHg 76%
    18:00 +20°C° 0.1 mm 5 mps 755 mmHg 77%
    19:00 +19°C° 0 mm 4 mps 755 mmHg 80%
    20:00 +18°C° 0 mm 3 mps 756 mmHg 83%
    21:00 +17°C° 0 mm 2 mps 757 mmHg 87%
    22:00 +17°C° 0 mm 2 mps 757 mmHg 88%
    23:00 +16°C° 0 mm 2 mps 757 mmHg 90%

    Day after tomorrow, 20 June, Thursday

    Time Temperature Precipitation Wind Pressure Humidity
    00:00 +16°C° 0 mm 2 mps 757 mmHg 92%
    01:00 +15°C° 0 mm 2 mps 757 mmHg 93%
    02:00 +15°C° 0 mm 1 mps 757 mmHg 94%
    03:00 +14°C° 0 mm 1 mps 757 mmHg 94%
    04:00 +15°C° 0 mm 1 mps 757 mmHg 92%
    05:00 +16°C° 0 mm 2 mps 757 mmHg 90%
    06:00 +17°C° 0 mm 2 mps 757 mmHg 87%
    07:00 +17°C° 0.1 mm 2 mps 757 mmHg 86%
    08:00 +17°C° 0.1 mm 3 mps 758 mmHg 85%
    09:00 +17°C° 0.1 mm 4 mps 758 mmHg 83%
    10:00 +17°C° 1.1 mm 3 mps 758 mmHg 84%
    11:00 +17°C° 1.1 mm 3 mps 758 mmHg 85%
    12:00 +17°C° 1.1 mm 3 mps 758 mmHg 87%
    13:00 +18°C° 0.2 mm 4 mps 758 mmHg 80%
    14:00 +19°C° 0.2 mm 4 mps 758 mmHg 73%
    15:00 +20°C° 0.2 mm 4 mps 758 mmHg 66%
    16:00 +19°C° 0 mm 4 mps 759 mmHg 64%
    17:00 +19°C° 0 mm 3 mps 759 mmHg 63%
    18:00 +18°C° 0 mm 3 mps 760 mmHg 62%
    19:00 +17°C° 0 mm 2 mps 760 mmHg 66%
    20:00 +15°C° 0 mm 2 mps 760 mmHg 71%
    21:00 +13°C° 0 mm 2 mps 761 mmHg 75%
    22:00 +13°C° 0 mm 2 mps 761 mmHg 80%
    23:00 +13°C° 0 mm 2 mps 761 mmHg 84%

    21 June, Friday

    Time Temperature Precipitation Wind Pressure Humidity
    00:00 +13°C° 0 mm 2 mps 761 mmHg 89%
    01:00 +12°C° 0 mm 2 mps 761 mmHg 91%
    02:00 +12°C° 0 mm 2 mps 761 mmHg 92%
    03:00 +12°C° 0 mm 2 mps 761 mmHg 94%
    04:00 +13°C° 0 mm 2 mps 761 mmHg 91%
    05:00 +14°C° 0 mm 2 mps 762 mmHg 88%
    06:00 +15°C° 0 mm 2 mps 762 mmHg 85%
    07:00 +16°C° 0.1 mm 3 mps 762 mmHg 78%
    08:00 +18°C° 0.1 mm 3 mps 762 mmHg 72%
    09:00 +19°C° 0.1 mm 3 mps 762 mmHg 66%
    10:00 +19°C° 0.1 mm 4 mps 762 mmHg 62%
    11:00 +20°C° 0.1 mm 4 mps 762 mmHg 59%
    12:00 +20°C° 0.1 mm 4 mps 762 mmHg 56%
    13:00 +20°C° 0 mm 4 mps 762 mmHg 55%
    14:00 +20°C° 0 mm 4 mps 763 mmHg 53%
    15:00 +20°C° 0 mm 5 mps 763 mmHg 52%
    16:00 +19°C° 0 mm 4 mps 763 mmHg 56%
    17:00 +18°C° 0 mm 3 mps 763 mmHg 59%
    18:00 +17°C° 0 mm 3 mps 763 mmHg 63%
    19:00 +16°C° 0 mm 2 mps 764 mmHg 68%
    20:00 +14°C° 0 mm 1 mps 764 mmHg 72%
    21:00 +12°C° 0 mm 1 mps 764 mmHg 77%
    22:00 +12°C° 0 mm 1 mps 764 mmHg 79%
    23:00 +11°C° 0 mm 1 mps 765 mmHg 81%

    22 June, Saturday

    Time Temperature Precipitation Wind Pressure Humidity
    00:00 +10°C° 0 mm 0 mps 765 mmHg 83%
    01:00 +11°C° 0 mm 1 mps 765 mmHg 84%
    02:00 +11°C° 0 mm 1 mps 765 mmHg 84%
    03:00 +11°C° 0 mm 1 mps 765 mmHg 85%
    04:00 +12°C° 0 mm 1 mps 765 mmHg 81%
    05:00 +13°C° 0 mm 1 mps 765 mmHg 78%
    06:00 +14°C° 0 mm 1 mps 765 mmHg 75%
    07:00 +16°C° 0 mm 1 mps 765 mmHg 70%
    08:00 +19°C° 0 mm 1 mps 765 mmHg 66%
    09:00 +20°C° 0 mm 1 mps 765 mmHg 61%
    10:00 +21°C° 0 mm 1 mps 765 mmHg 58%
    11:00 +22°C° 0 mm 1 mps 765 mmHg 55%
    12:00 +22°C° 0 mm 1 mps 765 mmHg 53%
    13:00 +22°C° 0 mm 1 mps 765 mmHg 55%
    14:00 +22°C° 0 mm 1 mps 765 mmHg 56%
    15:00 +21°C° 0 mm 2 mps 765 mmHg 58%
    16:00 +20°C° 0 mm 2 mps 765 mmHg 61%
    17:00 +20°C° 0 mm 2 mps 765 mmHg 64%
    18:00 +19°C° 0 mm 3 mps 765 mmHg 68%
    19:00 +18°C° 0 mm 3 mps 765 mmHg 74%
    20:00 +16°C° 0 mm 2 mps 765 mmHg 79%
    21:00 +15°C° 0 mm 2 mps 765 mmHg 85%
    22:00 +14°C° 0 mm 2 mps 765 mmHg 87%
    23:00 +14°C° 0 mm 2 mps 765 mmHg 88%

    23 June, Sunday

    Time Temperature Precipitation Wind Pressure Humidity
    00:00 +13°C° 0 mm 2 mps 765 mmHg 89%
    01:00 +13°C° 0 mm 2 mps 765 mmHg 90%
    02:00 +13°C° 0 mm 2 mps 765 mmHg 90%
    03:00 +12°C° 0 mm 2 mps 764 mmHg 90%
    04:00 +12°C° 0 mm 3 mps 764 mmHg 86%
    05:00 +13°C° 0 mm 3 mps 764 mmHg 83%
    06:00 +14°C° 0 mm 3 mps 765 mmHg 79%
    07:00 +17°C° 0 mm 3 mps 764 mmHg 74%
    08:00 +19°C° 0 mm 3 mps 764 mmHg 69%
    09:00 +21°C° 0 mm 3 mps 764 mmHg 63%
    10:00 +22°C° 0 mm 3 mps 764 mmHg 62%
    11:00 +24°C° 0 mm 3 mps 764 mmHg 62%
    12:00 +24°C° 0 mm 3 mps 764 mmHg 61%
    13:00 +24°C° 0.2 mm 3 mps 764 mmHg 63%
    14:00 +24°C° 0.2 mm 3 mps 763 mmHg 65%
    15:00 +24°C° 0.2 mm 3 mps 763 mmHg 68%
    16:00 +24°C° 0.1 mm 3 mps 763 mmHg 71%
    17:00 +22°C° 0.1 mm 3 mps 763 mmHg 75%
    18:00 +22°C° 0.1 mm 3 mps 763 mmHg 79%
    19:00 +21°C° 0 mm 3 mps 763 mmHg 81%
    20:00 +20°C° 0 mm 3 mps 763 mmHg 84%
    21:00 +19°C° 0 mm 3 mps 763 mmHg 86%
    22:00 +19°C° 0 mm 3 mps 763 mmHg 87%
    23:00 +19°C° 0 mm 2 mps 763 mmHg 88%
    Show more